User: anonymous   Login
Location: Unspecified
(0.0000°N, 0.0000°E)
Time: 09:29:16
(UTC+00:00)
Language:

SRMSAT - Orbit

View from above orbital plane
View from above orbital plane
View from above satellite
View from above satellite

Ground track
Ground track

The orbit data is extracted from the following two-line orbital elements,

1 37841U 11058D   17327.17467892 +.00000336 +00000-0 +39543-4 0  9992
2 37841 019.9717 251.4129 0011825 028.5623 114.6419 14.10592236315666
Epoch (UTC): 23 November 2017 04:11:32
Eccentricity: 0.0011825
inclination: 19.9717°
perigee height: 849 km
apogee height: 866 km
right ascension of ascending node: 251.4129°
argument of perigee: 28.5623°
revolutions per day: 14.10592236
mean anomaly at epoch: 114.6419°
orbit number at epoch: 31566

The dashed part of the orbit path shows where the satellite is in the earth's shadow,  

DLR